Year,Month,Day,Hour,Minute,Value (Times are PST for temperature in C)
2015,03,12,00,00,10.60
2015,03,12,00,01,10.60
2015,03,12,00,02,10.60
2015,03,12,00,03,10.60
2015,03,12,00,04,10.60
2015,03,12,00,05,10.60
2015,03,12,00,06,10.60
2015,03,12,00,07,10.60
2015,03,12,00,08,10.60
2015,03,12,00,09,10.60
2015,03,12,00,10,10.60
2015,03,12,00,11,10.60
2015,03,12,00,12,10.60
2015,03,12,00,13,10.60
2015,03,12,00,14,10.60
2015,03,12,00,15,10.60
2015,03,12,00,16,10.60
2015,03,12,00,17,10.60
2015,03,12,00,18,10.60
2015,03,12,00,19,10.60
2015,03,12,00,20,10.60
2015,03,12,00,21,10.60
2015,03,12,00,22,10.60
2015,03,12,00,23,10.60
2015,03,12,00,24,10.60
2015,03,12,00,25,10.60
2015,03,12,00,26,10.60
2015,03,12,00,27,10.60
2015,03,12,00,28,10.60
2015,03,12,00,29,10.60
2015,03,12,00,30,10.60
2015,03,12,00,31,10.60
2015,03,12,00,32,10.60
2015,03,12,00,33,10.60
2015,03,12,00,34,10.70
2015,03,12,00,35,10.70
2015,03,12,00,36,10.70
2015,03,12,00,37,10.70
2015,03,12,00,38,10.80
2015,03,12,00,39,10.80
2015,03,12,00,40,10.80
2015,03,12,00,41,10.90
2015,03,12,00,42,10.90
2015,03,12,00,43,10.90
2015,03,12,00,44,10.90
2015,03,12,00,45,10.90
2015,03,12,00,46,10.90
2015,03,12,00,47,10.90
2015,03,12,00,48,10.90
2015,03,12,00,49,10.90
2015,03,12,00,50,10.90
2015,03,12,00,51,10.90
2015,03,12,00,52,10.90
2015,03,12,00,53,10.90
2015,03,12,00,54,10.90
2015,03,12,00,55,10.90
2015,03,12,00,56,10.80
2015,03,12,00,57,10.80
2015,03,12,00,58,10.80
2015,03,12,00,59,10.80
2015,03,12,01,00,10.80
2015,03,12,01,01,10.70
2015,03,12,01,02,10.70
2015,03,12,01,03,10.70
2015,03,12,01,04,10.70
2015,03,12,01,05,10.70
2015,03,12,01,06,10.70
2015,03,12,01,07,10.70
2015,03,12,01,08,10.70
2015,03,12,01,09,10.70
2015,03,12,01,10,10.70
2015,03,12,01,11,10.70
2015,03,12,01,12,10.70
2015,03,12,01,13,10.70
2015,03,12,01,14,10.70
2015,03,12,01,15,10.70
2015,03,12,01,16,10.70
2015,03,12,01,17,10.60
2015,03,12,01,18,10.60
2015,03,12,01,19,10.70
2015,03,12,01,20,10.70
2015,03,12,01,21,10.60
2015,03,12,01,22,10.60
2015,03,12,01,23,10.60
2015,03,12,01,24,10.60
2015,03,12,01,25,10.60
2015,03,12,01,26,10.60
2015,03,12,01,27,10.60
2015,03,12,01,28,10.60
2015,03,12,01,29,10.60
2015,03,12,01,30,10.60
2015,03,12,01,31,10.60
2015,03,12,01,32,10.60
2015,03,12,01,33,10.60
2015,03,12,01,34,10.60
2015,03,12,01,35,10.60
2015,03,12,01,36,10.60
2015,03,12,01,37,10.60
2015,03,12,01,38,10.60
2015,03,12,01,39,10.60
2015,03,12,01,40,10.60
2015,03,12,01,41,10.60
2015,03,12,01,42,10.60
2015,03,12,01,43,10.60
2015,03,12,01,44,10.60
2015,03,12,01,45,10.60
2015,03,12,01,46,10.60
2015,03,12,01,47,10.60
2015,03,12,01,48,10.60
2015,03,12,01,49,10.60
2015,03,12,01,50,10.60
2015,03,12,01,51,10.60
2015,03,12,01,52,10.60
2015,03,12,01,53,10.60
2015,03,12,01,54,10.60
2015,03,12,01,55,10.60
2015,03,12,01,56,10.60
2015,03,12,01,57,10.60
2015,03,12,01,58,10.50
2015,03,12,01,59,10.50
2015,03,12,02,00,10.50
2015,03,12,02,01,10.50
2015,03,12,02,02,10.40
2015,03,12,02,03,10.40
2015,03,12,02,04,10.40
2015,03,12,02,05,10.40
2015,03,12,02,06,10.40
2015,03,12,02,07,10.40
2015,03,12,02,08,10.40
2015,03,12,02,09,10.40
2015,03,12,02,10,10.40
2015,03,12,02,11,10.40
2015,03,12,02,12,10.40
2015,03,12,02,13,10.40
2015,03,12,02,14,10.40
2015,03,12,02,15,10.40
2015,03,12,02,16,10.40
2015,03,12,02,17,10.50
2015,03,12,02,18,10.50
2015,03,12,02,19,10.40
2015,03,12,02,20,10.40
2015,03,12,02,21,10.40
2015,03,12,02,22,10.40
2015,03,12,02,23,10.40
2015,03,12,02,24,10.40
2015,03,12,02,25,10.40
2015,03,12,02,26,10.50
2015,03,12,02,27,10.50
2015,03,12,02,28,10.50
2015,03,12,02,29,10.50
2015,03,12,02,30,10.50
2015,03,12,02,31,10.50
2015,03,12,02,32,10.50
2015,03,12,02,33,10.50
2015,03,12,02,34,10.50
2015,03,12,02,35,10.50
2015,03,12,02,36,10.50
2015,03,12,02,37,10.50
2015,03,12,02,38,10.50
2015,03,12,02,39,10.40
2015,03,12,02,40,10.50
2015,03,12,02,41,10.50
2015,03,12,02,42,10.50
2015,03,12,02,43,10.50
2015,03,12,02,44,10.60
2015,03,12,02,45,10.60
2015,03,12,02,46,10.60
2015,03,12,02,47,10.60
2015,03,12,02,48,10.60
2015,03,12,02,49,10.70
2015,03,12,02,50,10.70
2015,03,12,02,51,10.70
2015,03,12,02,52,10.80
2015,03,12,02,53,10.90
2015,03,12,02,54,10.90
2015,03,12,02,55,10.90
2015,03,12,02,56,11.00
2015,03,12,02,57,11.00
2015,03,12,02,58,11.00
2015,03,12,02,59,11.10
2015,03,12,03,00,11.10
2015,03,12,03,01,11.10
2015,03,12,03,02,11.10
2015,03,12,03,03,11.20
2015,03,12,03,04,11.20
2015,03,12,03,05,11.30
2015,03,12,03,06,11.30
2015,03,12,03,07,11.40
2015,03,12,03,08,11.50
2015,03,12,03,09,11.50
2015,03,12,03,10,11.60
2015,03,12,03,11,11.60
2015,03,12,03,12,11.70
2015,03,12,03,13,11.70
2015,03,12,03,14,11.70
2015,03,12,03,15,11.80
2015,03,12,03,16,11.80
2015,03,12,03,17,11.90
2015,03,12,03,18,11.90
2015,03,12,03,19,11.90
2015,03,12,03,20,11.90
2015,03,12,03,21,12.00
2015,03,12,03,22,12.00
2015,03,12,03,23,12.10
2015,03,12,03,24,12.10
2015,03,12,03,25,12.10
2015,03,12,03,26,12.10
2015,03,12,03,27,12.20
2015,03,12,03,28,12.20
2015,03,12,03,29,12.20
2015,03,12,03,30,12.20
2015,03,12,03,31,12.20
2015,03,12,03,32,12.20
2015,03,12,03,33,12.30
2015,03,12,03,34,12.30
2015,03,12,03,35,12.30
2015,03,12,03,36,12.30
2015,03,12,03,37,12.30
2015,03,12,03,38,12.30
2015,03,12,03,39,12.30
2015,03,12,03,40,12.30
2015,03,12,03,41,12.30
2015,03,12,03,42,12.30
2015,03,12,03,43,12.30
2015,03,12,03,44,12.30
2015,03,12,03,45,12.30
2015,03,12,03,46,12.30
2015,03,12,03,47,12.30
2015,03,12,03,48,12.30
2015,03,12,03,49,12.30
2015,03,12,03,50,12.40
2015,03,12,03,51,12.40
2015,03,12,03,52,12.40
2015,03,12,03,53,12.40
2015,03,12,03,54,12.40
2015,03,12,03,55,12.40
2015,03,12,03,56,12.50
2015,03,12,03,57,12.50
2015,03,12,03,58,12.50
2015,03,12,03,59,12.50
2015,03,12,04,00,12.50
2015,03,12,04,01,12.50
2015,03,12,04,02,12.50
2015,03,12,04,03,12.50
2015,03,12,04,04,12.60
2015,03,12,04,05,12.60
2015,03,12,04,06,12.60
2015,03,12,04,07,12.60
2015,03,12,04,08,12.60
2015,03,12,04,09,12.60
2015,03,12,04,10,12.60
2015,03,12,04,11,12.60
2015,03,12,04,12,12.60
2015,03,12,04,13,12.60
2015,03,12,04,14,12.60
2015,03,12,04,15,12.60
2015,03,12,04,16,12.60
2015,03,12,04,17,12.60
2015,03,12,04,18,12.60
2015,03,12,04,19,12.60
2015,03,12,04,20,12.60
2015,03,12,04,21,12.60
2015,03,12,04,22,12.60
2015,03,12,04,23,12.60
2015,03,12,04,24,12.60
2015,03,12,04,25,12.60
2015,03,12,04,26,12.50
2015,03,12,04,27,12.50
2015,03,12,04,28,12.50
2015,03,12,04,29,12.50
2015,03,12,04,30,12.50
2015,03,12,04,31,12.50
2015,03,12,04,32,12.50
2015,03,12,04,33,12.50
2015,03,12,04,34,12.50
2015,03,12,04,35,12.50
2015,03,12,04,36,12.50
2015,03,12,04,37,12.50
2015,03,12,04,38,12.50
2015,03,12,04,39,12.50
2015,03,12,04,40,12.40
2015,03,12,04,41,12.40
2015,03,12,04,42,12.40
2015,03,12,04,43,12.40
2015,03,12,04,44,12.40
2015,03,12,04,45,12.40
2015,03,12,04,46,12.40
2015,03,12,04,47,12.40
2015,03,12,04,48,12.40
2015,03,12,04,49,12.40
2015,03,12,04,50,12.40
2015,03,12,04,51,12.40
2015,03,12,04,52,12.40
2015,03,12,04,53,12.40
2015,03,12,04,54,12.40
2015,03,12,04,55,12.40
2015,03,12,04,56,12.40
2015,03,12,04,57,12.40
2015,03,12,04,58,12.40
2015,03,12,04,59,12.40
2015,03,12,05,00,12.40
2015,03,12,05,01,12.40
2015,03,12,05,02,12.40
2015,03,12,05,03,12.40
2015,03,12,05,04,12.40
2015,03,12,05,05,12.40
2015,03,12,05,06,12.40
2015,03,12,05,07,12.30
2015,03,12,05,08,12.30
2015,03,12,05,09,12.30
2015,03,12,05,10,12.30
2015,03,12,05,11,12.30
2015,03,12,05,12,12.30
2015,03,12,05,13,12.30
2015,03,12,05,14,12.30
2015,03,12,05,15,12.30
2015,03,12,05,16,12.30
2015,03,12,05,17,12.30
2015,03,12,05,18,12.20
2015,03,12,05,19,12.20
2015,03,12,05,20,12.20
2015,03,12,05,21,12.20
2015,03,12,05,22,12.20
2015,03,12,05,23,12.20
2015,03,12,05,24,12.20
2015,03,12,05,25,12.10
2015,03,12,05,26,12.10
2015,03,12,05,27,12.10
2015,03,12,05,28,12.10
2015,03,12,05,29,12.00
2015,03,12,05,30,12.00
2015,03,12,05,31,12.00
2015,03,12,05,32,11.90
2015,03,12,05,33,11.90
2015,03,12,05,34,11.90
2015,03,12,05,35,11.90
2015,03,12,05,36,11.90
2015,03,12,05,37,11.90
2015,03,12,05,38,11.80
2015,03,12,05,39,11.80
2015,03,12,05,40,11.80
2015,03,12,05,41,11.80
2015,03,12,05,42,11.80
2015,03,12,05,43,11.80
2015,03,12,05,44,11.80
2015,03,12,05,45,11.80
2015,03,12,05,46,11.80
2015,03,12,05,47,11.80
2015,03,12,05,48,11.80
2015,03,12,05,49,11.80
2015,03,12,05,50,11.80
2015,03,12,05,51,11.80
2015,03,12,05,52,11.80
2015,03,12,05,53,11.80
2015,03,12,05,54,11.90
2015,03,12,05,55,11.90
2015,03,12,05,56,11.90
2015,03,12,05,57,11.90
2015,03,12,05,58,11.90
2015,03,12,05,59,11.90
2015,03,12,06,00,11.80
2015,03,12,06,01,11.80
2015,03,12,06,02,11.70
2015,03,12,06,03,11.70
2015,03,12,06,04,11.70
2015,03,12,06,05,11.60
2015,03,12,06,06,11.60
2015,03,12,06,07,11.60
2015,03,12,06,08,11.50
2015,03,12,06,09,11.50
2015,03,12,06,10,11.40
2015,03,12,06,11,11.30
2015,03,12,06,12,11.20
2015,03,12,06,13,11.10
2015,03,12,06,14,11.00
2015,03,12,06,15,11.00
2015,03,12,06,16,10.90
2015,03,12,06,17,10.90
2015,03,12,06,18,11.00
2015,03,12,06,19,11.00
2015,03,12,06,20,11.10
2015,03,12,06,21,11.20
2015,03,12,06,22,11.20
2015,03,12,06,23,11.20
2015,03,12,06,24,11.20
2015,03,12,06,25,11.20
2015,03,12,06,26,11.20
2015,03,12,06,27,11.10
2015,03,12,06,28,11.00
2015,03,12,06,29,10.90
2015,03,12,06,30,10.80
2015,03,12,06,31,10.70
2015,03,12,06,32,10.60
2015,03,12,06,33,10.50
2015,03,12,06,34,10.40
2015,03,12,06,35,10.40
2015,03,12,06,36,10.30
2015,03,12,06,37,10.30
2015,03,12,06,38,10.30
2015,03,12,06,39,10.20
2015,03,12,06,40,10.20
2015,03,12,06,41,10.20
2015,03,12,06,42,10.20
2015,03,12,06,43,10.10
2015,03,12,06,44,10.10
2015,03,12,06,45,10.10
2015,03,12,06,46,10.10
2015,03,12,06,47,10.10
2015,03,12,06,48,10.00
2015,03,12,06,49,10.00
2015,03,12,06,50,10.00
2015,03,12,06,51,9.90
2015,03,12,06,52,9.90
2015,03,12,06,53,9.90
2015,03,12,06,54,9.90
2015,03,12,06,55,9.80
2015,03,12,06,56,9.80
2015,03,12,06,57,9.80
2015,03,12,06,58,9.80
2015,03,12,06,59,9.80
2015,03,12,07,00,9.70
2015,03,12,07,01,9.70
2015,03,12,07,02,9.70
2015,03,12,07,03,9.70
2015,03,12,07,04,9.80
2015,03,12,07,05,9.80
2015,03,12,07,06,9.80
2015,03,12,07,07,9.80
2015,03,12,07,08,9.80
2015,03,12,07,09,9.90
2015,03,12,07,10,9.90
2015,03,12,07,11,9.90
2015,03,12,07,12,9.90
2015,03,12,07,13,9.90
2015,03,12,07,14,9.90
2015,03,12,07,15,9.90
2015,03,12,07,16,10.00
2015,03,12,07,17,10.00
2015,03,12,07,18,10.00
2015,03,12,07,19,10.00
2015,03,12,07,20,10.10
2015,03,12,07,21,10.10
2015,03,12,07,22,10.10
2015,03,12,07,23,10.10
2015,03,12,07,24,10.10
2015,03,12,07,25,10.10
2015,03,12,07,26,10.10
2015,03,12,07,27,10.10
2015,03,12,07,28,10.10
2015,03,12,07,29,10.10
2015,03,12,07,30,10.10
2015,03,12,07,31,10.10
2015,03,12,07,32,10.10
2015,03,12,07,33,10.10
2015,03,12,07,34,10.10
2015,03,12,07,35,10.10
2015,03,12,07,36,10.10
2015,03,12,07,37,10.10
2015,03,12,07,38,10.10
2015,03,12,07,39,10.00
2015,03,12,07,40,10.00
2015,03,12,07,41,10.10
2015,03,12,07,42,10.10
2015,03,12,07,43,10.00
2015,03,12,07,44,10.00
2015,03,12,07,45,10.00
2015,03,12,07,46,10.00
2015,03,12,07,47,10.00
2015,03,12,07,48,10.00
2015,03,12,07,49,10.00
2015,03,12,07,50,10.00
2015,03,12,07,51,10.10
2015,03,12,07,52,10.10
2015,03,12,07,53,10.10
2015,03,12,07,54,10.10
2015,03,12,07,55,10.10
2015,03,12,07,56,10.20
2015,03,12,07,57,10.20
2015,03,12,07,58,10.20
2015,03,12,07,59,10.20
2015,03,12,08,00,10.20
2015,03,12,08,01,10.30
2015,03,12,08,02,10.30
2015,03,12,08,03,10.30
2015,03,12,08,04,10.30
2015,03,12,08,05,10.40
2015,03,12,08,06,10.40
2015,03,12,08,07,10.40
2015,03,12,08,08,10.40
2015,03,12,08,09,10.40
2015,03,12,08,10,10.40
2015,03,12,08,11,10.40
2015,03,12,08,12,10.40
2015,03,12,08,13,10.40
2015,03,12,08,14,10.40
2015,03,12,08,15,10.40
2015,03,12,08,16,10.40
2015,03,12,08,17,10.40
2015,03,12,08,18,10.40
2015,03,12,08,19,10.40
2015,03,12,08,20,10.40
2015,03,12,08,21,10.40
2015,03,12,08,22,10.40
2015,03,12,08,23,10.40
2015,03,12,08,24,10.30
2015,03,12,08,25,10.30
2015,03,12,08,26,10.30
2015,03,12,08,27,10.30
2015,03,12,08,28,10.40
2015,03,12,08,29,10.40
2015,03,12,08,30,10.40
2015,03,12,08,31,10.40
2015,03,12,08,32,10.40
2015,03,12,08,33,10.40
2015,03,12,08,34,10.40
2015,03,12,08,35,10.40
2015,03,12,08,36,10.50
2015,03,12,08,37,10.50
2015,03,12,08,38,10.50
2015,03,12,08,39,10.50
2015,03,12,08,40,10.50
2015,03,12,08,41,10.50
2015,03,12,08,42,10.50
2015,03,12,08,43,10.60
2015,03,12,08,44,10.60
2015,03,12,08,45,10.60
2015,03,12,08,46,10.60
2015,03,12,08,47,10.60
2015,03,12,08,48,10.60
2015,03,12,08,49,10.70
2015,03,12,08,50,10.70
2015,03,12,08,51,10.70
2015,03,12,08,52,10.70
2015,03,12,08,53,10.70
2015,03,12,08,54,10.70
2015,03,12,08,55,10.70
2015,03,12,08,56,10.80
2015,03,12,08,57,10.80
2015,03,12,08,58,10.80
2015,03,12,08,59,10.80
2015,03,12,09,00,10.80
2015,03,12,09,01,10.80
2015,03,12,09,02,10.90
2015,03,12,09,03,10.90
2015,03,12,09,04,11.00
2015,03,12,09,05,11.10
2015,03,12,09,06,11.10
2015,03,12,09,07,11.20
2015,03,12,09,08,11.20
2015,03,12,09,09,11.30
2015,03,12,09,10,11.40
2015,03,12,09,11,11.50
2015,03,12,09,12,11.50
2015,03,12,09,13,11.60
2015,03,12,09,14,11.60
2015,03,12,09,15,11.70
2015,03,12,09,16,11.70
2015,03,12,09,17,11.80
2015,03,12,09,18,11.80
2015,03,12,09,19,11.80
2015,03,12,09,20,11.90
2015,03,12,09,21,11.90
2015,03,12,09,22,11.90
2015,03,12,09,23,12.00
2015,03,12,09,24,12.00
2015,03,12,09,25,12.10
2015,03,12,09,26,12.10
2015,03,12,09,27,12.20
2015,03,12,09,28,12.20
2015,03,12,09,29,12.20
2015,03,12,09,30,12.20
2015,03,12,09,31,12.30
2015,03,12,09,32,12.30
2015,03,12,09,33,12.30
2015,03,12,09,34,12.40
2015,03,12,09,35,12.40
2015,03,12,09,36,12.40
2015,03,12,09,37,12.40
2015,03,12,09,38,12.30
2015,03,12,09,39,12.30
2015,03,12,09,40,12.30
2015,03,12,09,41,12.30
2015,03,12,09,42,12.30
2015,03,12,09,43,12.30
2015,03,12,09,44,12.30
2015,03,12,09,45,12.30
2015,03,12,09,46,12.30
2015,03,12,09,47,12.30
2015,03,12,09,48,12.30
2015,03,12,09,49,12.30
2015,03,12,09,50,12.30
2015,03,12,09,51,12.30
2015,03,12,09,52,12.30
2015,03,12,09,53,12.30
2015,03,12,09,54,12.30
2015,03,12,09,55,12.40
2015,03,12,09,56,12.40
2015,03,12,09,57,12.50
2015,03,12,09,58,12.50
2015,03,12,09,59,12.60
2015,03,12,10,00,12.70
2015,03,12,10,01,12.70
2015,03,12,10,02,12.80
2015,03,12,10,03,12.90
2015,03,12,10,04,13.00
2015,03,12,10,05,13.10
2015,03,12,10,06,13.10
2015,03,12,10,07,13.20
2015,03,12,10,08,13.30
2015,03,12,10,09,13.30
2015,03,12,10,10,13.40
2015,03,12,10,11,13.40
2015,03,12,10,12,13.50
2015,03,12,10,13,13.50
2015,03,12,10,14,13.50
2015,03,12,10,15,13.60
2015,03,12,10,16,13.60
2015,03,12,10,17,13.60
2015,03,12,10,18,13.60
2015,03,12,10,19,13.60
2015,03,12,10,20,13.60
2015,03,12,10,21,13.60
2015,03,12,10,22,13.70
2015,03,12,10,23,13.70
2015,03,12,10,24,13.70
2015,03,12,10,25,13.80
2015,03,12,10,26,13.80
2015,03,12,10,27,13.80
2015,03,12,10,28,13.90
2015,03,12,10,29,13.90
2015,03,12,10,30,14.00
2015,03,12,10,31,14.00
2015,03,12,10,32,14.10
2015,03,12,10,33,14.10
2015,03,12,10,34,14.20
2015,03,12,10,35,14.20
2015,03,12,10,36,14.20
2015,03,12,10,37,14.20
2015,03,12,10,38,14.20
2015,03,12,10,39,14.30
2015,03,12,10,40,14.30
2015,03,12,10,41,14.40
2015,03,12,10,42,14.40
2015,03,12,10,43,14.40
2015,03,12,10,44,14.40
2015,03,12,10,45,14.40
2015,03,12,10,46,14.30
2015,03,12,10,47,14.30
2015,03,12,10,48,14.30
2015,03,12,10,49,14.30
2015,03,12,10,50,14.30
2015,03,12,10,51,14.30
2015,03,12,10,52,14.30
2015,03,12,10,53,14.20
2015,03,12,10,54,14.20
2015,03,12,10,55,14.20
2015,03,12,10,56,14.20
2015,03,12,10,57,14.20
2015,03,12,10,58,14.20
2015,03,12,10,59,14.20
2015,03,12,11,00,14.20
2015,03,12,11,01,14.20
2015,03,12,11,02,14.20
2015,03,12,11,03,14.20
2015,03,12,11,04,14.10
2015,03,12,11,05,14.10
2015,03,12,11,06,14.10
2015,03,12,11,07,14.10
2015,03,12,11,08,14.00
2015,03,12,11,09,14.00
2015,03,12,11,10,13.80
2015,03,12,11,11,13.70
2015,03,12,11,12,13.50
2015,03,12,11,13,13.40
2015,03,12,11,14,13.30
2015,03,12,11,15,13.20
2015,03,12,11,16,13.10
2015,03,12,11,17,13.10
2015,03,12,11,18,13.00
2015,03,12,11,19,13.00
2015,03,12,11,20,12.90
2015,03,12,11,21,12.80
2015,03,12,11,22,12.80
2015,03,12,11,23,12.80
2015,03,12,11,24,12.80
2015,03,12,11,25,12.80
2015,03,12,11,26,12.80
2015,03,12,11,27,12.80
2015,03,12,11,28,12.80
2015,03,12,11,29,12.70
2015,03,12,11,30,12.70
2015,03,12,11,31,12.70
2015,03,12,11,32,12.70
2015,03,12,11,33,12.60
2015,03,12,11,34,12.60
2015,03,12,11,35,12.60
2015,03,12,11,36,12.60
2015,03,12,11,37,12.60
2015,03,12,11,38,12.50
2015,03,12,11,39,12.50
2015,03,12,11,40,12.50
2015,03,12,11,41,12.50
2015,03,12,11,42,12.50
2015,03,12,11,43,12.50
2015,03,12,11,44,12.50
2015,03,12,11,45,12.60
2015,03,12,11,46,12.60
2015,03,12,11,47,12.70
2015,03,12,11,48,12.80
2015,03,12,11,49,12.80
2015,03,12,11,50,12.90
2015,03,12,11,51,12.90
2015,03,12,11,52,13.00
2015,03,12,11,53,13.20
2015,03,12,11,54,13.30
2015,03,12,11,55,13.40
2015,03,12,11,56,13.50
2015,03,12,11,57,13.60
2015,03,12,11,58,13.70
2015,03,12,11,59,13.80
2015,03,12,12,00,13.90
2015,03,12,12,01,14.00
2015,03,12,12,02,14.00
2015,03,12,12,03,14.10
2015,03,12,12,04,14.10
2015,03,12,12,05,14.10
2015,03,12,12,06,14.00
2015,03,12,12,07,13.90
2015,03,12,12,08,13.80
2015,03,12,12,09,13.70
2015,03,12,12,10,13.60
2015,03,12,12,11,13.40
2015,03,12,12,12,13.30
2015,03,12,12,13,13.20
2015,03,12,12,14,13.20
2015,03,12,12,15,13.10
2015,03,12,12,16,13.10
2015,03,12,12,17,13.00
2015,03,12,12,18,13.00
2015,03,12,12,19,13.00
2015,03,12,12,20,13.00
2015,03,12,12,21,13.00
2015,03,12,12,22,13.00
2015,03,12,12,23,13.00
2015,03,12,12,24,13.00
2015,03,12,12,25,13.10
2015,03,12,12,26,13.10
2015,03,12,12,27,13.10
2015,03,12,12,28,13.20
2015,03,12,12,29,13.20
2015,03,12,12,30,13.20
2015,03,12,12,31,13.20
2015,03,12,12,32,13.20
2015,03,12,12,33,13.20
2015,03,12,12,34,13.30
2015,03,12,12,35,13.30
2015,03,12,12,36,13.30
2015,03,12,12,37,13.30
2015,03,12,12,38,13.40
2015,03,12,12,39,13.40
2015,03,12,12,40,13.40
2015,03,12,12,41,13.40
2015,03,12,12,42,13.30
2015,03,12,12,43,13.30
2015,03,12,12,44,13.40
2015,03,12,12,45,13.40
2015,03,12,12,46,13.40
2015,03,12,12,47,13.40
2015,03,12,12,48,13.40
2015,03,12,12,49,13.40
2015,03,12,12,50,13.50
2015,03,12,12,51,13.60
2015,03,12,12,52,13.60
2015,03,12,12,53,13.60
2015,03,12,12,54,13.60
2015,03,12,12,55,13.70
2015,03,12,12,56,13.70
2015,03,12,12,57,13.70
2015,03,12,12,58,13.80
2015,03,12,12,59,13.80
2015,03,12,13,00,13.80
2015,03,12,13,01,13.80
2015,03,12,13,02,13.80
2015,03,12,13,03,13.90
2015,03,12,13,04,13.90
2015,03,12,13,05,14.00
2015,03,12,13,06,14.00
2015,03,12,13,07,14.10
2015,03,12,13,08,14.20
2015,03,12,13,09,14.30
2015,03,12,13,10,14.40
2015,03,12,13,11,14.50
2015,03,12,13,12,14.60
2015,03,12,13,13,14.60
2015,03,12,13,14,14.70
2015,03,12,13,15,14.60
2015,03,12,13,16,14.60
2015,03,12,13,17,14.50
2015,03,12,13,18,14.50
2015,03,12,13,19,14.40
2015,03,12,13,20,14.40
2015,03,12,13,21,14.40
2015,03,12,13,22,14.40
2015,03,12,13,23,14.50
2015,03,12,13,24,14.50
2015,03,12,13,25,14.50
2015,03,12,13,26,14.50
2015,03,12,13,27,14.50
2015,03,12,13,28,14.50
2015,03,12,13,29,14.50
2015,03,12,13,30,14.60
2015,03,12,13,31,14.70
2015,03,12,13,32,14.70
2015,03,12,13,33,14.70
2015,03,12,13,34,14.70
2015,03,12,13,35,14.60
2015,03,12,13,36,14.50
2015,03,12,13,37,14.50
2015,03,12,13,38,14.50
2015,03,12,13,39,14.40
2015,03,12,13,40,14.40
2015,03,12,13,41,14.40
2015,03,12,13,42,14.50
2015,03,12,13,43,14.50
2015,03,12,13,44,14.60
2015,03,12,13,45,14.50
2015,03,12,13,46,14.50
2015,03,12,13,47,14.50
2015,03,12,13,48,14.50
2015,03,12,13,49,14.50
2015,03,12,13,50,14.50
2015,03,12,13,51,14.50
2015,03,12,13,52,14.50
2015,03,12,13,53,14.50
2015,03,12,13,54,14.50
2015,03,12,13,55,14.50
2015,03,12,13,56,14.50
2015,03,12,13,57,14.50
2015,03,12,13,58,14.50
2015,03,12,13,59,14.60
2015,03,12,14,00,14.60
2015,03,12,14,01,14.70
2015,03,12,14,02,14.70
2015,03,12,14,03,14.70
2015,03,12,14,04,14.70
2015,03,12,14,05,14.80
2015,03,12,14,06,14.90
2015,03,12,14,07,14.90
2015,03,12,14,08,14.90
2015,03,12,14,09,15.00
2015,03,12,14,10,15.00
2015,03,12,14,11,15.10
2015,03,12,14,12,15.10
2015,03,12,14,13,15.10
2015,03,12,14,14,15.10
2015,03,12,14,15,15.20
2015,03,12,14,16,15.20
2015,03,12,14,17,15.20
2015,03,12,14,18,15.20
2015,03,12,14,19,15.20
2015,03,12,14,20,15.20
2015,03,12,14,21,15.20
2015,03,12,14,22,15.20
2015,03,12,14,23,15.20
2015,03,12,14,24,15.20
2015,03,12,14,25,15.20
2015,03,12,14,26,15.30
2015,03,12,14,27,15.30
2015,03,12,14,28,15.30
2015,03,12,14,29,15.40
2015,03,12,14,30,15.50
2015,03,12,14,31,15.40
2015,03,12,14,32,15.40
2015,03,12,14,33,15.40
2015,03,12,14,34,15.40
2015,03,12,14,35,15.40
2015,03,12,14,36,15.40
2015,03,12,14,37,15.40
2015,03,12,14,38,15.40
2015,03,12,14,39,15.40
2015,03,12,14,40,15.30
2015,03,12,14,41,15.30
2015,03,12,14,42,15.40
2015,03,12,14,43,15.40
2015,03,12,14,44,15.50
2015,03,12,14,45,15.50
2015,03,12,14,46,15.60
2015,03,12,14,47,15.60
2015,03,12,14,48,15.60
2015,03,12,14,49,15.60
2015,03,12,14,50,15.70
2015,03,12,14,51,15.70
2015,03,12,14,52,15.70
2015,03,12,14,53,15.70
2015,03,12,14,54,15.70
2015,03,12,14,55,15.60
2015,03,12,14,56,15.60
2015,03,12,14,57,15.60
2015,03,12,14,58,15.50
2015,03,12,14,59,15.50
2015,03,12,15,00,15.40
2015,03,12,15,01,15.40
2015,03,12,15,02,15.30
2015,03,12,15,03,15.40
2015,03,12,15,04,15.40
2015,03,12,15,05,15.40
2015,03,12,15,06,15.50
2015,03,12,15,07,15.60
2015,03,12,15,08,15.70
2015,03,12,15,09,15.70
2015,03,12,15,10,15.70
2015,03,12,15,11,15.80
2015,03,12,15,12,15.80
2015,03,12,15,13,15.80
2015,03,12,15,14,15.80
2015,03,12,15,15,15.70
2015,03,12,15,16,15.70
2015,03,12,15,17,15.70
2015,03,12,15,18,15.70
2015,03,12,15,19,15.80
2015,03,12,15,20,15.70
2015,03,12,15,21,15.70
2015,03,12,15,22,15.60
2015,03,12,15,23,15.60
2015,03,12,15,24,15.70
2015,03,12,15,25,15.70
2015,03,12,15,26,15.70
2015,03,12,15,27,15.70
2015,03,12,15,28,15.60
2015,03,12,15,29,15.50
2015,03,12,15,30,15.50
2015,03,12,15,31,15.40
2015,03,12,15,32,15.50
2015,03,12,15,33,15.50
2015,03,12,15,34,15.50
2015,03,12,15,35,15.60
2015,03,12,15,36,15.60
2015,03,12,15,37,15.60
2015,03,12,15,38,15.70
2015,03,12,15,39,15.60
2015,03,12,15,40,15.60
2015,03,12,15,41,15.60
2015,03,12,15,42,15.60
2015,03,12,15,43,15.50
2015,03,12,15,44,15.40
2015,03,12,15,45,15.20
2015,03,12,15,46,14.90
2015,03,12,15,47,14.70
2015,03,12,15,48,14.50
2015,03,12,15,49,14.30
2015,03,12,15,50,14.20
2015,03,12,15,51,14.00
2015,03,12,15,52,13.90
2015,03,12,15,53,13.90
2015,03,12,15,54,13.80
2015,03,12,15,55,13.80
2015,03,12,15,56,13.80
2015,03,12,15,57,13.70
2015,03,12,15,58,13.60
2015,03,12,15,59,13.60
2015,03,12,16,00,13.50
2015,03,12,16,01,13.40
2015,03,12,16,02,13.40
2015,03,12,16,03,13.40
2015,03,12,16,04,13.40
2015,03,12,16,05,13.30
2015,03,12,16,06,13.20
2015,03,12,16,07,13.20
2015,03,12,16,08,13.20
2015,03,12,16,09,13.20
2015,03,12,16,10,13.20
2015,03,12,16,11,13.20
2015,03,12,16,12,13.20
2015,03,12,16,13,13.20
2015,03,12,16,14,13.10
2015,03,12,16,15,13.10
2015,03,12,16,16,13.10
2015,03,12,16,17,13.10
2015,03,12,16,18,13.10
2015,03,12,16,19,13.10
2015,03,12,16,20,13.10
2015,03,12,16,21,13.10
2015,03,12,16,22,13.20
2015,03,12,16,23,13.20
2015,03,12,16,24,13.20
2015,03,12,16,25,13.20
2015,03,12,16,26,13.20
2015,03,12,16,27,13.20
2015,03,12,16,28,13.20
2015,03,12,16,29,13.10
2015,03,12,16,30,13.00
2015,03,12,16,31,13.00
2015,03,12,16,32,12.90
2015,03,12,16,33,12.90
2015,03,12,16,34,13.00
2015,03,12,16,35,13.00
2015,03,12,16,36,13.10
2015,03,12,16,37,13.10
2015,03,12,16,38,13.10
2015,03,12,16,39,13.20
2015,03,12,16,40,13.30
2015,03,12,16,41,13.30
2015,03,12,16,42,13.40
2015,03,12,16,43,13.50
2015,03,12,16,44,13.60
2015,03,12,16,45,13.60
2015,03,12,16,46,13.70
2015,03,12,16,47,13.70
2015,03,12,16,48,13.80
2015,03,12,16,49,13.80
2015,03,12,16,50,13.90
2015,03,12,16,51,14.00
2015,03,12,16,52,14.00
2015,03,12,16,53,14.00
2015,03,12,16,54,14.10
2015,03,12,16,55,14.10
2015,03,12,16,56,14.10
2015,03,12,16,57,14.20
2015,03,12,16,58,14.20
2015,03,12,16,59,14.20
2015,03,12,17,00,14.30
2015,03,12,17,01,14.30
2015,03,12,17,02,14.30
2015,03,12,17,03,14.40
2015,03,12,17,04,14.40
2015,03,12,17,05,14.50
2015,03,12,17,06,14.60
2015,03,12,17,07,14.60
2015,03,12,17,08,14.70
2015,03,12,17,09,14.80
2015,03,12,17,10,14.80
2015,03,12,17,11,14.90
2015,03,12,17,12,15.10
2015,03,12,17,13,15.10
2015,03,12,17,14,15.20
2015,03,12,17,15,15.30
2015,03,12,17,16,15.40
2015,03,12,17,17,15.50
2015,03,12,17,18,15.50
2015,03,12,17,19,15.50
2015,03,12,17,20,15.60